OPS 4682 DEB, 1316

Orbit data source: Space-Track

OPS 4682 DEB, 1316 is space debris in LEO originally from a launch on Sat, 03 Apr 1965 UTC launched from the Air Force Western Test Range (AFWTR). Debris objects in space refer to the collection of defunct objects orbiting the Earth. Examples of debris include non-operational satellites, rocket bodies, and fragments generated from explosions, collisions, or faulty payload assembly.

Loading next visibility...
Identifier
1316, 1965-027C
Orbit
LEO
Country
Flag of USUS
Related business
Manufacturer
Unknown
Mission
Spacecraft
Bus & Motor
Unknown
Mass
7 kg wet, 7 kg dry
Launch date (UTC)
1965-04-03 (61 years ago)
Launch vehicle
Unknown
Launch site
Air Force Western Test Range (AFWTR)
Object type
Payload
Rocket body
Debris
Shape & HBR
Unknown
Radar Cross Section
Medium (>0.1 m² and <1 m²)

Expand to show TLE details & history
Last TLE update: 6 hours ago

TLE from 6 hours ago
0 OPS 4682 DEB
1 01316U 65027C   25311.25351800  .00001218  00000-0  29052-2 0  9999
2 01316  90.2571  22.0004 0034278  79.1097 281.3892 13.22140138889678
Epoch: 2025-11-07T06:05Z
TLE epoch observation values (Epoch: 2025-11-07T06:05:03.955Z)
Latitude
-0.00001°
Longitude
-115.96621°
Altitude
1,174.44 km
Speed
7.269 km/s
True Right ascension
01h 28m 00s
True Declination
0° 00' 00"
Sunlit
Object was in full shadow at epoch
Visualization orbit readout
Latitude
Unknown
Longitude
Unknown
Altitude
Unknown
Speed
Unknown
Apparent Right ascension
Unknown
Apparent Declination
Unknown
Sunlit
N/A
Visualization observer readout
Local Sidereal Time
08:17:29
Azimuth
Unknown
Elevation
Unknown
Doppler factor
Unknown
Orbital elements
Apogee altitude
1,199.533 km
Perigee altitude
1,147.761 km
Semi-major axis
7,551.784 km
Eccentricity
0.00343
Inclination
90.2571°
RAAN
22.0004°
Arg. of periapsis
79.1097°
True anomaly
281.00381°
Mean anomaly
281.3892°
Eccentric anomaly
281.19654°
Mean motion
3.30726 °/min
Orbital period
108.85 mins
BSTAR
0.0029052
Loading maneuver chart data...
Computing Atmospheric mass density...
Loading historical data...
Loading historical data...
Loading historical data...
Loading historical data...
Loading historical data...
Loading historical data...
Loading historical data...

Documentation

Showing up to 5 results
|